This demonstration page uses our WeatherBlox Daily Observations layout. Learn more.

41.55636, -103.73856

Hourly Observations for April 29, 2019

Temp ( °F °C ) Dew Point ( °F °C ) Humidity (%) Winds ( mph kmh ) Pressure ( in mb ) Visibility ( mi km ) Precip ( " mm )
12:53 am 00:53 Mostly Cloudy 35 1.7 17 -8.3 48 48 NNW 25 41 30.03 1017 10 16.09344 0 0
1:53 am 01:53 Clear 32 0 17 -8.3 54 54 NW 13 20 30.06 1018 10 16.09344 0 0
2:53 am 02:53 Clear 31 -0.6 17 -8.3 56 56 NW 15 24 30.09 1019 10 16.09344 0 0
3:53 am 03:53 Clear 29 -1.7 18 -7.8 63 63 WNW 13 20 30.09 1019 10 16.09344 0 0
4:53 am 04:53 Clear 29 -1.7 18 -7.8 63 63 WNW 14 22 30.15 1021 10 16.09344 0 0
5:53 am 05:53 Clear 28 -2.2 19 -7.2 69 69 NW 14 22 30.18 1022 10 16.09344 0 0
6:53 am 06:53 Sunny 30 -1.1 20 -6.7 66 66 WNW 14 22 30.21 1023 10 16.09344 0 0
7:31 am 07:31 Mostly Cloudy 31 -0.6 20 -6.7 64 64 NW 13 20 30.33 1027 10 16.09344 0 0
7:53 am 07:53 Cloudy 33 0.6 20 -6.7 58 58 NNW 21 33 30.21 1023 10 16.09344 0 0
8:12 am 08:12 Cloudy 34 1 19 -7 56 56 NNW 20 31 30.3 1026 10 16.09344 0 0
8:53 am 08:53 Cloudy 37 2.8 21 -6.1 52 52 N 18 30 30.21 1023 10 16.09344 0 0
9:53 am 09:53 Partly Cloudy 37 2.8 20 -6.7 50 50 N 15 24 30.21 1023 10 16.09344 0 0
10:53 am 10:53 Sunny 39 3.9 21 -6.1 48 48 NNW 22 35 30.21 1023 10 16.09344 0 0
11:53 am 11:53 Mostly Cloudy 41 5 22 -5.6 47 47 NNW 10 17 30.21 1023 10 16.09344 0 0
12:53 pm 12:53 Partly Cloudy 41 5 21 -6.1 45 45 VRB 5 7 30.18 1022 10 16.09344 0 0
1:53 pm 13:53 Cloudy 42 5.6 21 -6.1 43 43 Calm 30.18 1022 10 16.09344 0 0
2:53 pm 14:53 Cloudy 40 4.4 24 -4.4 53 53 Calm 30.18 1022 10 16.09344 0 0
3:42 pm 15:42 Cloudy with Light Snow 37 2.8 29 -1.7 73 73 Calm 30.21 1023 5 8.04672 0.001 0.001
3:53 pm 15:53 Cloudy with Light Snow 36 2.2 30 -1.1 79 79 Calm 30.21 1023 2 3.218688 0.001 0.001
4:01 pm 16:01 Cloudy with Light Snow 36 2.2 31 -0.6 82 82 ENE 3 6 30.21 1023 1.5 2.414016 0.001 0.001
4:36 pm 16:36 Cloudy with Light Snow 36 2 34 1 93 93 Calm 30.21 1023 2 3.218688 0 0
4:43 pm 16:43 Cloudy with Light Snow 36 2.2 33 0.6 89 89 Calm 30.21 1023 1.75 2.816352 0.01 0.254
4:53 pm 16:53 Cloudy with Light Snow 36 2.2 33 0.6 89 89 Calm 30.21 1023 1.75 2.816352 0.01 0.254
4:55 pm 16:55 Cloudy with Light Snow 36 2.2 33 0.6 89 89 Calm 30.21 1023 2 3.218688 0.001 0.001
4:57 pm 16:57 Cloudy with Light Snow 36 2.2 33 0.6 89 89 Calm 30.21 1023 3 4.828032 0.001 0.001
5:30 pm 17:30 Cloudy with Light Snow 36 2.2 32 0 86 86 Calm 30.21 1023 6 9.656064 0.001 0.001
5:53 pm 17:53 Cloudy with Light Snow 36 2.2 32 0 86 86 Calm 30.18 1022 4 6.437376 0.001 0.001
6:00 pm 18:00 Cloudy with Light Snow 36 2 34 1 93 93 SE 3 6 30.21 1023 3 4.828032 0 0
6:08 pm 18:08 Cloudy with Light Snow 36 2 34 1 93 93 ESE 3 6 30.21 1023 4 6.437376 0 0
6:17 pm 18:17 Cloudy with Light Snow 36 2.2 34 1.1 93 93 SE 3 6 30.21 1023 4 6.437376 0.001 0.001
6:32 pm 18:32 Cloudy with Light Snow 36 2 34 1 93 93 SSE 5 7 30.21 1023 2 3.218688 0 0
6:39 pm 18:39 Cloudy with Light Snow 35 1.7 34 1.1 96 96 S 3 6 30.21 1023 1.5 2.414016 0.01 0.254
6:53 pm 18:53 Cloudy with Light Snow 34 1.1 33 0.6 97 97 SSE 5 7 30.18 1022 1 1.609344 0.02 0.508
7:09 pm 19:09 Cloudy with Light Snow 34 1.1 33 0.6 97 97 ESE 5 7 30.24 1024 2 3.218688 0.01 0.254
7:19 pm 19:19 Cloudy with Light Snow 34 1.1 33 0.6 97 97 ESE 6 9 30.24 1024 1 1.609344 0.02 0.508
7:27 pm 19:27 Cloudy with Light Snow 34 1.1 33 0.6 97 97 SE 7 11 30.24 1024 0.75 1.207008 0.03 0.762
7:50 pm 19:50 Cloudy with Light Snow 34 1 34 1 100 100 ESE 10 17 30.24 1024 1.75 2.816352 0 0
7:53 pm 19:53 Cloudy with Light Snow 34 1.1 33 0.6 97 97 ESE 12 19 30.18 1022 2 3.218688 0.05 1.27
8:05 pm 20:05 Cloudy with Light Snow 34 1.1 33 0.6 97 97 ESE 12 19 30.24 1024 2 3.218688 0.001 0.001
8:15 pm 20:15 Cloudy with Light Snow 34 1.1 33 0.6 97 97 ESE 12 19 30.24 1024 1.75 2.816352 0.001 0.001
8:31 pm 20:31 Cloudy with Light Snow 34 1.1 33 0.6 97 97 ESE 13 20 30.24 1024 1.25 2.01168 0.01 0.254
8:53 pm 20:53 Cloudy with Light Snow 33 0.6 33 0.6 100 100 ESE 12 19 30.18 1022 1.25 2.01168 0.03 0.762
9:39 pm 21:39 Cloudy with Light Snow 33 0.6 33 0.6 100 100 ESE 10 17 30.24 1024 2 3.218688 0.02 0.508
9:46 pm 21:46 Cloudy with Light Snow 33 0.6 33 0.6 100 100 ESE 13 20 30.24 1024 2.5 4.02336 0.02 0.508
9:53 pm 21:53 Cloudy with Light Snow 33 0.6 32 0 96 96 ESE 10 17 30.18 1022 2 3.218688 0.03 0.762
10:02 pm 22:02 Cloudy with Light Snow 34 1 32 0 93 93 ESE 13 20 30.24 1024 1.5 2.414016 0 0
10:24 pm 22:24 Cloudy with Light Snow 34 1 32 0 93 93 ESE 10 17 30.24 1024 2 3.218688 0 0
10:40 pm 22:40 Cloudy with Light Snow 34 1 32 0 93 93 ESE 10 17 30.24 1024 1.5 2.414016 0 0
10:53 pm 22:53 Cloudy with Light Snow 33 0.6 32 0 96 96 ESE 12 19 30.15 1021 1.25 2.01168 0.02 0.508
11:51 pm 23:51 Cloudy with Snow 32 0 32 0 100 100 ESE 16 26 30.24 1024 0.5 0.804672 0.03 0.762
11:53 pm 23:53 Cloudy with Snow 32 0 32 0 100 100 ESE 17 28 30.12 1020 0.5 0.804672 0.03 0.762

Powered by AerisWeather